RH
4 4 4 5 6 7 8 8 10 11 11 10 11 14 18 24 25 22 18 8 12 11 9 5 5 11 16 18 29 75 70 66 68 73 74 76 72 70 79 72 75 65 64 58 57
2 2 2 2 2 2 2 3 3 4 7 10 11 11 12 16 23 24 20 7 8 11 8 6 4 8 14 17 28 48 55 64 66 69 67 64 68 75 67 73 67 61 63 64 57
2 2 2 2 2 2 2 2 2 2 2 3 6 11 11 11 18 20 23 24 7 8 10 10 8 5 8 15 23 45 69 68 68 71 63 52 61 65 65 68 65 62 61 60 61
4 3 3 3 3 3 3 3 2 2 1 1 2 4 10 10 12 22 21 18 15 8 10 9 8 5 8 12 18 40 68 76 75 73 67 70 69 71 68 78 77 77 80 65 63
4 3 3 3 3 3 4 4 3 2 2 2 1 1 2 8 8 13 15 23 11 8 9 8 7 5 6 11 17 23 58 74 77 78 74 69 62 67 66 72 72 58 59 73 66
2 2 2 3 4 4 4 4 4 3 3 2 2 1 1 3 8 8 12 19 18 8 10 10 10 8 5 7 14 22 32 68 78 72 75 70 65 64 62 59 64 64 51 59 65
2 2 2 2 2 3 4 4 4 4 4 3 3 2 1 1 6 7 12 20 27 12 13 13 11 11 7 8 9 26 42 59 72 67 67 71 62 53 60 55 65 61 49 54 58
2 2 2 2 2 2 3 3 3 3 5 4 5 5 2 2 4 7 8 22 30 16 16 16 15 15 12 8 10 12 30 68 63 65 60 66 62 59 58 52 62 57 40 43 57
2 2 2 2 2 2 3 3 3 4 5 4 7 7 6 8 3 6 6 10 32 24 18 19 19 17 15 17 20 35 34 46 58 62 63 65 58 56 54 47 53 56 32 39 50
2 2 2 2 2 2 2 3 4 5 5 6 8 8 14 13 13 6 6 6 25 24 20 21 22 20 18 15 44 47 31 39 50 58 60 60 58 58 54 51 50 56 28 33 42
2 2 2 2 2 2 2 2 5 6 8 6 9 11 20 18 17 24 26 8 11 39 27 23 22 16 7 11 10 44 47 36 45 53 57 55 58 57 55 50 53 56 43 22 29
4 3 2 2 2 2 2 4 8 10 12 10 10 18 26 24 20 25 34 40 23 40 45 35 23 16 16 16 12 25 48 50 48 56 56 54 52 53 50 43 45 50 48 28 27
7 4 3 2 3 8 11 12 16 16 13 14 16 17 19 21 23 23 32 42 45 47 48 49 29 23 20 18 18 15 41 42 46 51 56 52 48 46 43 42 49 54 58 48 31
9 5 3 3 8 13 21 19 20 18 15 21 25 26 15 19 23 20 25 31 38 46 50 55 45 38 31 20 18 14 12 40 48 46 43 49 47 46 44 38 38 46 56 52 45
12 6 4 4 13 21 23 24 21 19 25 24 29 28 25 22 19 16 14 18 25 36 46 49 50 48 46 34 20 15 12 16 44 46 40 42 39 42 41 40 37 39 44 54 49
15 6 5 12 16 27 28 27 22 21 27 30 35 33 28 23 17 13 11 10 13 21 30 42 45 48 43 36 39 27 30 22 30 42 42 40 40 40 37 35 35 37 45 49 52
19 7 9 10 25 37 37 29 26 23 26 34 32 30 26 23 18 14 12 8 8 12 20 30 34 41 40 41 41 41 34 45 51 49 45 41 41 40 39 34 35 36 36 39 44
19 8 11 10 34 40 39 33 28 32 34 37 36 33 30 28 22 20 17 14 12 20 16 45 40 30 38 35 40 43 41 41 62 57 39 39 41 38 40 35 34 28 29 39 39
10 10 11 11 38 42 41 37 34 42 40 37 37 36 35 36 32 34 39 63 52 54 62 74 65 35 39 36 35 40 47 40 37 36 39 29 36 37 35 34 33 25 26 27 32
12 10 10 15 22 28 47 55 44 43 43 42 43 40 42 41 43 41 38 63 43 32 32 87 95 39 38 42 36 38 45 47 44 55 48 37 32 33 33 32 30 30 24 23 24
13 10 13 17 27 40 50 62 51 46 46 47 49 48 44 43 52 52 48 52 44 37 35 40 72 70 55 44 39 38 43 47 38 44 47 39 29 26 30 30 29 27 23 24 20
11 16 24 52 55 62 65 59 58 61 62 56 53 46 47 52 52 51 50 49 48 45 45 61 87 95 65 42 39 38 38 49 46 44 45 35 33 20 25 25 23 26 22 21 19
35 51 62 66 67 71 76 77 71 72 70 71 62 61 56 55 53 55 51 52 45 41 60 70 80 98 76 40 43 48 36 41 48 46 42 45 38 24 23 20 19 21 24 20 17
62 70 75 78 90 88 79 76 77 86 88 85 79 68 65 66 64 63 61 58 54 55 73 93 97 87 85 52 59 45 38 34 37 39 42 42 38 37 22 17 14 14 15 16 17
75 84 90 97 99 99 92 85 84 84 91 95 96 92 75 72 70 69 68 64 70 74 89 84 70 91 69 66 72 62 43 42 36 37 37 35 33 32 28 22 19 15 14 13 13
84 93 92 96 94 94 97 99 94 99 100 95 96 97 96 96 95 88 88 78 76 73 82 80 89 96 93 76 70 61 49 44 42 37 33 29 33 32 27 22 17 16 14 12 12
76 87 88 90 94 89 98 100 98 98 84 92 98 98 96 95 94 88 89 83 77 79 81 90 94 98 86 63 62 66 55 59 47 38 36 35 31 25 23 22 20 16 14 11 13
Wind_Speed
15 16 16 17 17 18 18 17 17 16 16 15 15 13 11 10 9 5 2 12 17 18 18 19 22 23 20 15 10 12 5 4 1 5 3 8 3 7 6 1 7 9 10 15 19
14 15 16 16 16 17 18 18 17 16 16 17 15 14 13 11 9 7 13 12 21 19 18 17 21 25 24 17 14 10 7 6 1 6 6 9 3 6 3 2 7 11 10 18 20
16 17 18 17 18 18 18 19 19 18 18 17 17 15 13 11 9 8 10 13 17 17 19 17 19 22 24 18 16 9 2 10 13 15 12 18 10 7 4 5 4 2 6 15 20
17 18 19 20 19 19 18 18 19 18 18 18 17 16 13 10 7 8 4 8 14 18 22 24 24 25 23 23 18 14 12 15 15 9 9 5 6 6 5 5 8 9 8 10 18
18 20 21 20 19 19 19 19 18 18 18 17 17 16 13 11 13 14 12 9 11 18 20 23 22 23 25 25 21 18 18 16 14 11 7 6 4 3 9 12 4 7 10 13 16
20 20 21 21 20 20 19 20 18 18 18 18 15 14 13 12 14 16 12 12 10 15 19 19 19 18 19 27 26 19 20 18 17 11 8 7 6 7 10 7 10 6 9 13 15
21 22 22 20 20 21 22 21 18 18 20 21 18 15 13 14 15 17 14 16 15 14 16 15 17 18 22 23 24 23 16 25 20 15 9 7 9 9 11 5 9 9 12 16 18
25 26 27 24 22 23 23 23 20 19 22 22 19 14 11 8 16 20 19 17 19 19 21 20 22 22 21 23 23 27 27 21 25 17 9 10 12 9 9 11 10 9 14 19 22
25 25 27 27 25 23 23 22 23 19 20 17 13 10 6 6 15 20 24 21 22 22 23 24 26 28 24 21 22 21 20 27 25 20 11 12 11 11 11 11 15 14 16 19 22
26 26 27 27 26 23 22 21 23 18 16 15 8 7 7 9 10 18 25 25 26 25 27 30 30 34 32 32 25 21 30 26 29 23 17 14 16 7 9 12 15 16 15 17 23
29 28 27 27 27 24 21 21 21 13 19 14 11 9 8 10 8 13 18 22 26 34 34 32 36 44 39 35 37 20 22 32 29 28 22 19 19 23 20 16 21 21 17 17 19
32 29 27 27 26 25 23 19 17 13 11 14 14 11 8 7 4 8 15 15 26 29 31 34 44 38 37 35 35 36 20 29 30 26 25 19 22 22 25 24 24 19 21 19 20
31 28 26 26 24 22 21 20 14 13 12 11 15 18 10 3 4 5 11 15 20 26 30 34 25 42 38 39 39 40 39 30 29 17 25 23 25 24 26 26 29 31 27 24 22
31 29 25 24 21 19 18 17 14 12 8 7 9 13 12 1 6 10 5 11 14 20 27 26 36 17 24 44 41 42 43 37 28 17 10 23 12 31 30 27 29 33 33 31 25
30 29 26 22 19 17 15 15 12 9 3 5 8 13 16 10 9 10 11 9 12 15 20 23 22 33 25 23 40 42 37 39 38 32 26 18 10 28 32 33 31 30 30 35 31
28 28 24 21 19 17 16 14 10 1 4 5 7 11 16 16 16 18 17 16 14 15 21 27 30 27 21 37 28 33 11 21 34 30 23 33 25 27 37 38 33 30 30 34 37
27 24 21 19 17 16 18 12 5 6 4 5 9 16 18 21 22 22 24 22 17 14 16 22 30 37 29 15 32 25 29 6 10 12 15 31 27 29 37 38 30 27 27 28 33
24 20 19 18 13 16 15 10 8 6 7 11 14 17 15 18 20 22 20 18 17 16 15 14 13 31 34 41 25 39 37 15 8 5 15 27 16 21 42 33 33 23 27 30 31
20 17 18 17 12 15 15 5 5 7 7 11 16 12 9 21 17 13 11 5 9 10 5 9 13 23 28 43 35 31 46 40 18 10 9 28 21 25 27 32 38 28 24 26 30
17 15 18 14 12 16 16 12 12 13 13 13 11 8 12 15 10 10 6 4 7 10 16 10 18 28 27 33 47 41 31 35 31 9 5 6 28 24 42 30 33 43 33 23 20
19 19 13 13 16 18 20 16 16 17 17 13 12 14 14 10 9 10 6 9 9 12 18 25 21 28 24 32 45 46 40 34 40 26 9 1 7 31 33 36 35 35 41 33 25
20 17 11 17 11 7 10 14 15 14 14 15 15 13 11 9 9 10 11 12 13 17 19 21 15 19 34 33 31 42 39 41 29 30 34 4 24 7 29 24 21 40 33 30 18
20 15 18 15 7 17 12 15 18 16 14 10 9 10 9 12 8 8 9 15 18 18 13 15 12 11 14 37 34 23 47 34 44 30 40 24 8 29 21 22 27 31 40 33 24
24 18 20 10 20 15 18 13 10 12 12 14 13 12 12 14 13 10 14 14 21 21 19 18 21 27 17 13 8 24 26 45 41 30 30 42 33 38 18 15 21 28 30 33 33
25 23 21 19 15 13 12 11 11 16 19 20 17 16 18 21 21 23 22 21 21 19 21 17 27 29 33 36 30 23 21 32 42 42 29 24 35 34 39 32 26 21 25 33 30
23 22 22 16 13 11 12 17 14 13 20 25 27 24 21 29 21 24 20 22 24 20 25 24 24 20 32 29 33 24 12 17 28 44 34 24 34 32 31 30 27 27 26 31 34
26 26 24 18 16 13 17 19 19 17 20 12 20 17 17 18 18 22 23 27 28 24 25 27 23 11 15 14 17 17 19 12 20 32 38 44 37 32 28 25 28 26 25 29 36
Wind_Direction
336 332 330 328 325 322 320 319 316 312 308 305 303 301 296 289 291 302 261 210 213 216 216 210 205 212 214 202 196 213 258 245 34 188 139 221 171 185 189 229 171 171 157 177 168
344 339 336 332 329 326 323 322 318 314 307 302 296 292 293 292 283 273 243 239 226 215 217 219 216 212 215 206 204 222 242 231 46 171 79 120 143 185 186 163 146 154 174 188 184
341 338 336 335 332 330 328 325 320 318 312 304 298 288 284 286 286 266 242 239 241 222 213 209 213 221 222 210 211 215 202 168 113 115 116 131 142 158 200 175 177 205 214 199 196
345 342 340 337 334 335 335 332 328 325 319 310 301 294 281 273 259 220 190 224 233 219 213 215 213 216 211 215 215 205 159 156 169 144 141 190 224 211 182 180 192 232 249 235 205
342 339 339 339 336 334 335 337 334 332 329 323 309 296 286 261 244 246 250 241 223 220 220 223 224 225 217 214 212 220 198 188 184 199 211 239 194 223 206 211 226 231 221 202 208
338 335 334 338 340 334 330 331 335 335 332 326 320 305 287 259 236 241 226 225 219 220 219 224 227 232 228 226 213 225 220 213 213 209 235 265 302 229 209 228 252 247 207 170 196
329 330 331 334 336 334 333 328 328 337 331 333 332 323 294 254 231 229 217 211 212 200 224 226 231 225 226 231 222 219 204 222 209 195 221 255 252 226 205 260 243 219 190 171 183
322 322 322 324 324 326 329 333 324 322 325 339 340 331 294 246 218 225 218 214 200 200 194 215 222 222 231 225 224 226 233 223 203 202 217 227 248 281 230 239 250 229 194 178 183
333 330 323 319 316 316 324 328 325 317 322 336 341 342 306 262 220 222 221 214 203 205 192 205 217 222 224 222 220 219 225 223 211 211 221 241 241 253 234 233 234 231 208 187 182
331 330 327 324 318 306 311 319 327 318 308 315 346 339 337 318 262 240 227 212 211 198 192 201 212 217 220 214 218 210 217 219 221 214 222 231 227 232 229 254 232 222 221 199 194
330 325 326 325 320 311 308 313 319 327 319 315 321 331 317 335 321 244 241 228 215 208 211 208 210 213 212 215 217 211 226 224 217 214 222 227 236 231 247 251 233 227 222 208 207
328 321 319 317 320 315 309 311 323 316 312 305 299 301 306 323 306 244 240 236 219 215 210 216 222 228 225 221 223 220 221 228 227 225 224 231 241 242 249 263 245 243 230 210 205
328 328 318 314 318 318 315 317 332 316 316 274 271 276 286 320 290 247 212 233 230 220 215 226 230 234 230 228 225 226 222 219 227 226 228 240 246 238 246 251 247 242 235 234 218
330 329 319 312 316 316 317 319 329 328 303 254 259 278 274 255 283 308 305 241 238 238 236 241 232 242 239 233 229 233 226 223 225 235 223 222 249 236 243 250 246 243 233 230 222
329 328 320 316 315 312 315 316 319 322 328 272 256 259 288 317 298 284 305 280 259 230 230 229 241 231 235 231 233 239 238 232 233 244 253 228 238 243 244 246 240 230 232 227 223
326 323 317 319 320 315 318 310 305 263 230 246 259 283 296 301 309 302 299 291 286 268 241 247 242 235 237 250 248 243 226 242 236 244 248 238 228 234 231 235 237 227 232 226 221
325 319 320 324 317 316 317 306 267 211 233 258 280 305 315 322 327 324 325 309 311 310 278 252 246 241 225 243 236 230 216 207 216 219 236 239 225 224 230 232 229 222 218 220 228
322 313 316 317 299 313 310 304 235 234 241 282 305 317 321 332 335 332 336 331 317 319 298 296 281 241 231 232 226 221 204 191 192 210 235 234 225 224 232 228 231 223 218 232 239
320 307 310 311 284 302 307 288 260 249 269 282 301 316 324 332 336 336 357 16 342 345 347 300 259 246 223 230 231 228 216 215 243 248 234 225 233 236 236 232 230 222 233 236 239
327 321 321 303 297 300 297 279 270 265 262 278 298 283 314 320 311 319 331 286 326 321 328 297 295 254 224 224 226 227 228 207 217 213 242 229 212 221 228 224 226 228 234 233 238
332 330 323 314 311 291 278 270 256 251 256 264 272 285 290 284 279 290 255 278 301 308 310 308 282 271 245 232 216 220 224 216 216 222 222 310 236 225 229 229 224 228 230 239 244
336 343 337 326 313 321 268 247 244 253 261 276 273 269 255 234 258 271 274 288 296 298 296 296 280 268 257 216 216 220 222 216 208 213 230 254 239 199 222 218 227 223 226 231 228
352 351 344 340 326 319 307 274 254 255 265 254 241 250 249 268 276 250 269 278 286 280 279 281 262 279 278 222 213 228 220 219 223 227 226 221 216 229 227 219 224 229 225 231 226
350 355 350 350 337 330 323 323 263 247 251 252 256 231 245 253 252 265 274 276 285 278 266 267 252 240 256 201 188 210 216 220 227 220 223 227 238 238 231 235 230 214 222 234 235
351 345 348 338 342 343 340 331 297 274 268 261 243 240 243 245 242 252 262 265 264 255 244 274 277 264 267 265 252 245 215 207 217 226 231 226 234 242 245 238 245 224 210 212 219
346 341 341 355 353 347 358 351 330 297 283 272 260 252 260 247 260 272 267 252 251 256 251 266 272 270 274 260 242 242 231 223 219 220 224 230 243 246 246 250 255 257 260 243 232
344 342 347 2 2 0 1 349 334 327 308 295 272 263 276 259 263 263 261 257 255 249 253 252 270 261 277 234 218 238 221 204 195 210 217 229 237 241 246 256 259 264 259 236 235